Weather History for KCOU - December, 2012

Change the Weather History Date:

Tuesday, December 18, 2012

  Actual Average Record
Temperature  
Mean Temperature 44 °F 31 °F  
Max Temperature 58 °F 40 °F 71 °F (1939)
Min Temperature 30 °F 23 °F -8 °F (1983)
Degree Days  
Heating Degree Days 21 34  
Month to date heating degree days 360 559  
Since 1 July heating degree days 1327 1544  
Cooling Degree Days 0 0  
Month to date cooling degree days 0 0  
Year to date cooling degree days 1896 1249  
Moisture  
Dew Point 32 °F    
Average Humidity 70    
Maximum Humidity 100    
Minimum Humidity 40    
Precipitation  
Precipitation 0.00 in 0.08 in 3.86 in (1895)
Month to date precipitation 1.05 1.53  
Year to date precipitation 30.19 41.71  
Snow  
Snow 0.00 in 0.10 in 4.80 in (1945)
Month to date snowfall 0.0 2.2  
Since 1 July snowfall 0.0 3.1  
Snow Depth 0.00 in    
Sea Level Pressure  
Sea Level Pressure 29.76 in    
Wind  
Wind Speed 10 mph (SW)    
Max Wind Speed 22 mph    
Max Gust Speed 26 mph    
Visibility 7 miles    
Events      
T = Trace of Precipitation, MM = Missing Value Source: NWS Daily Summary

Daily Weather History Graph

Daily Weather History Graph

Search for Another Location

Airport or City:

Trip Planner

Search our weather history database for the weather conditions in past years. The results will help you decide how hot, cold, wet, or windy it might be!

Date:

Astronomy

Dec. 18, 2012 Rise Set
Actual Time 7:22 AM CST 4:49 PM CST
Civil Twilight 6:52 AM CST 5:19 PM CST
Nautical Twilight 6:18 AM CST 5:52 PM CST
Astronomical Twilight 5:46 AM CST 6:25 PM CST
Moon 11:05 AM CST (12/18) 11:12 PM CST (12/18)
Length of Visible Light 10h 26m
Length of Day
9h 27m
Waxing Crescent, 35% of the Moon is Illuminated
Dec 18
Waxing Crescent
Dec 19
First Quarter
Dec 28
Full
Jan 4
Last Quarter
Jan 11
New

Hourly Weather History & Observations

Time (CST) Temp. Windchill Dew Point Humidity Pressure Visibility Wind Dir Wind Speed Gust Speed Precip Events Conditions
12:11 AM 30.2 °F 24.3 °F 28.4 °F 93% 29.77 in 3.0 mi South 5.8 mph - N/A   Clear
12:30 AM 30.2 °F 25.4 °F 28.4 °F 93% 29.76 in 2.5 mi South 4.6 mph - N/A   Clear
12:54 AM 30.0 °F 23.2 °F 28.0 °F 92% 29.78 in 2.5 mi South 6.9 mph - N/A   Clear
1:09 AM 30.2 °F 23.4 °F 28.4 °F 93% 29.76 in 3.0 mi South 6.9 mph - N/A   Clear
1:18 AM 30.2 °F 23.4 °F 28.4 °F 93% 29.75 in 2.5 mi South 6.9 mph - N/A   Clear
1:54 AM 30.0 °F 21.7 °F 28.9 °F 96% 29.76 in 2.5 mi South 9.2 mph - N/A   Clear
2:37 AM 30.2 °F 22.6 °F 28.4 °F 93% 29.74 in 3.0 mi SSE 8.1 mph - N/A   Clear
2:54 AM 30.0 °F 23.2 °F 28.9 °F 96% 29.76 in 3.0 mi SSE 6.9 mph - N/A   Clear
3:54 AM 30.9 °F 22.2 °F 30.0 °F 96% 29.73 in 3.0 mi SSE 10.4 mph - N/A   Clear
4:54 AM 33.1 °F 24.9 °F 30.9 °F 92% 29.71 in 4.0 mi SSE 10.4 mph - N/A   Overcast
5:54 AM 33.8 °F 26.4 °F 30.2 °F 87% 29.69 in 6.0 mi South 9.2 mph - N/A   Clear
6:54 AM 33.1 °F 24.4 °F 30.9 °F 92% 29.71 in 6.0 mi SSE 11.5 mph - N/A   Clear
7:54 AM 35.1 °F 27.4 °F 32.0 °F 89% 29.70 in 6.0 mi South 10.4 mph - N/A   Clear
8:54 AM 39.0 °F 31.4 °F 34.0 °F 82% 29.70 in 9.0 mi South 12.7 mph - N/A   Clear
9:54 AM 44.1 °F 37.1 °F 36.0 °F 73% 29.72 in 10.0 mi SSW 15.0 mph - N/A   Clear
10:54 AM 51.1 °F - 37.0 °F 59% 29.71 in 10.0 mi SW 16.1 mph 25.3 mph N/A   Clear
11:54 AM 54.0 °F - 36.0 °F 51% 29.70 in 10.0 mi SW 18.4 mph - N/A   Clear
12:54 PM 57.0 °F - 35.1 °F 44% 29.68 in 10.0 mi West 13.8 mph 26.5 mph N/A   Clear
1:54 PM 57.9 °F - 35.1 °F 42% 29.69 in 10.0 mi WSW 13.8 mph - N/A   Clear
2:54 PM 57.0 °F - 34.0 °F 42% 29.71 in 10.0 mi WSW 18.4 mph 24.2 mph N/A   Clear
3:54 PM 55.9 °F - 33.1 °F 42% 29.73 in 10.0 mi West 12.7 mph 21.9 mph N/A   Clear
4:54 PM 51.1 °F - 33.1 °F 50% 29.76 in 10.0 mi WNW 6.9 mph - N/A   Clear
5:54 PM 50.0 °F - 32.0 °F 50% 29.78 in 10.0 mi WNW 8.1 mph - N/A   Clear
6:54 PM 46.9 °F - 32.0 °F 56% 29.83 in 10.0 mi WNW 5.8 mph - N/A   Clear
7:54 PM 46.0 °F 43.1 °F 32.0 °F 58% 29.85 in 10.0 mi WNW 5.8 mph - N/A   Clear
8:54 PM 42.1 °F 37.7 °F 33.1 °F 70% 29.87 in 10.0 mi NNW 6.9 mph - N/A   Clear
9:54 PM 39.9 °F 35.1 °F 32.0 °F 73% 29.89 in 10.0 mi NNW 6.9 mph - N/A   Clear
10:54 PM 39.0 °F 36.8 °F 32.0 °F 76% 29.90 in 10.0 mi NNW 3.5 mph - N/A   Clear
11:54 PM 36.0 °F 32.1 °F 30.0 °F 79% 29.92 in 10.0 mi North 4.6 mph - N/A   Clear